User: anonymous   Login
Location: Bittkow
(50.3000°N, 19.0000°E)
Time: 11:54:09
(UTC+00:00)
Language:

ATLAS 5 CENTAUR R/B - Orbit

View from above orbital plane
View from above orbital plane
View from above satellite
View from above satellite

Ground track
Ground track

The orbit data is extracted from the following two-line orbital elements,

1 31702U 07027B   20327.70752166 0.00000650  00000-0  13132-3 0    04
2 31702  63.3618 162.2268 0413328  16.7557 343.2443 14.18845577    04
Epoch (UTC): 22 November 2020 16:58:49
Eccentricity: 0.0413328
inclination: 63.3618°
perigee height: 531 km
apogee height: 1127 km
right ascension of ascending node: 162.2268°
argument of perigee: 16.7557°
revolutions per day: 14.18845577
mean anomaly at epoch: 343.2443°
orbit number at epoch: 0

The dashed part of the orbit path shows where the satellite is in the earth's shadow,  

DLR